Starlink 1417

operational
NORAD ID: 45693 Int'l Des: 2020-035 Owner: SPXS Country: US Constellation: starlink
LEOCIRCULAR

About Starlink 1417

Description loading...

Live Position

Loading 3D Globe...

Upcoming Passes

Altitude History

Altitude vs Time

uPlot chart will show altitude changes over time

Two-Line Element Set

1 45693U 20035AN 26063.31112601 .00035492 00000-0 20423-2 0 9995
2 45693 53.0517 78.6793 0002402 216.2077 143.8753 15.12142492318085
Epoch: Mar 4, 2026 • Age: 22 hours

Current Status

Altitude 538.8 km
Velocity 7.59 km/s
Sub-Earth Point -29.17°S, 75°W
Launch Date Jun 4, 2020
Age 5.7 years
Type internet

Technical Details

Classification Payload
Mass 260.00 kg
Dry Mass 248.00 kg
Total Mass 260.00 kg
Length 0.20 m
Diameter 2.80 m
Span 9.00 m
Shape Box + pan
Manufacturer SPXS
Bus Type Starlink
Phase Status In Orbit
Owner/State SPXS/US

Large Constellations

Loading constellations...